Weather in Ust-Erga

Russia / Arkhangel'skaya Oblast'     62°05′55″N   45°08′53″E
temp.,
°C
wind,
m/s
gust,
m/s
humid.,
%
clouds,
%
prec.,
mm/h
press.,
hPa
HPBL,
m
24 january, sun
sun2400:00−13se4994100 2.6 1011425
03:00−11se3596100 3.9 1011173
06:00−10se2496100 0.3 101191
09:00−8se2496100 0.5 1012131
12:00−4sse2595100 0.1 1012235
15:00−3sse3794100 0.1 1013299
18:00−2s3897100 0.0 1012394
21:00+1s2996100 0.0 1012448
25 january, mon
mon2500:00+1s31097100 0.0 1011395
03:00+1s31097100 0.1 1012496
06:00+1s2897100 0.1 1011346
09:00+1s3897100 0.1 1012376
12:00+1s3898100 0.1 1012348
15:00+2s31098100 0.1 1012312
18:00+1ssw21096100 0.0 1013429
21:00+1s31095100 0.0 1013485
26 january, tue
tue2600:00+1ssw3994100 0.0 1014458
03:000s3994100 0.0 1015382
06:000ssw3894100 0.1 1015417
09:00−1s3893100 0.1 1015363
12:00−1sse269599 0.0 1016336
15:00−1sse379499 0.1 1016435
18:00−2sse3796100 0.1 1015352
21:00−2se2695100 0.3 1014307
27 january, wed
wed2700:00−3se3797100 0.1 1014281
03:00−3se3896100 0.6 1012299
06:00−1sse4109699 0.4 1012576
09:00−3sse399499 0.6 1011321
12:00−1sse4992100 0.0 1010546
15:000sse41094100 1.4 1008759
18:00−2sse3109695 0.1 1006418
21:00−1se389698 0.3 1005267
28 january, thu
thu2800:000ssw31192100 0.1 1005542
03:00−3ssw389498 0.2 1006261
06:00−6ssw239580 0.0 100747
09:00−7sw129690 0.0 100821
12:00−5s1295100 0.0 1009100
15:00−6ese119599 0.0 101021
18:00−7e1295100 0.0 101121
21:00−7ene2495100 0.0 101191